Time,TemperatureF,DewpointF,PressureIn,WindDirection,WindDirectionDegrees,WindSpeedMPH,WindSpeedGustMPH,Humidity,HourlyPrecipIn,Conditions,Clouds,dailyrainin,SoftwareType,DateUTC
2013-04-09 07:22:00,38.0,36.0,30.08,East,89,0.0,1.0,94,0.00,,,0.00,,2013-04-09 14:22:00,
2013-04-09 07:32:00,38.0,36.0,30.08,East,89,0.0,1.0,94,0.00,,,0.00,,2013-04-09 14:32:00,
2013-04-09 07:42:00,38.0,36.0,30.08,East,89,0.0,1.0,94,0.00,,,0.00,,2013-04-09 14:42:00,
2013-04-09 07:51:00,40.0,38.0,30.08,West,281,1.0,3.0,92,0.00,,,0.00,,2013-04-09 14:51:00,
2013-04-09 08:01:00,43.0,39.0,30.08,NW,317,1.0,2.0,86,0.00,,,0.00,,2013-04-09 15:01:00,
2013-04-09 08:12:00,43.0,39.0,30.08,NW,317,1.0,2.0,86,0.00,,,0.00,,2013-04-09 15:12:00,
2013-04-09 08:22:00,44.0,39.0,30.09,NNW,344,1.0,3.0,83,0.00,,,0.00,,2013-04-09 15:22:00,
2013-04-09 08:33:00,45.0,39.0,30.09,West,278,1.0,4.0,80,0.00,,,0.00,,2013-04-09 15:33:00,
2013-04-09 08:43:00,45.0,39.0,30.09,West,278,1.0,4.0,80,0.00,,,0.00,,2013-04-09 15:43:00,
2013-04-09 08:52:00,46.0,39.0,30.10,NNW,336,1.0,3.0,77,0.00,,,0.00,,2013-04-09 15:52:00,
2013-04-09 09:03:00,47.0,39.0,30.09,WSW,251,2.0,5.0,75,0.00,,,0.00,,2013-04-09 16:03:00,
2013-04-09 09:12:00,47.0,39.0,30.09,WSW,251,2.0,5.0,75,0.00,,,0.00,,2013-04-09 16:12:00,
2013-04-09 09:22:00,49.0,40.0,30.09,NW,312,2.0,8.0,72,0.00,,,0.00,,2013-04-09 16:22:00,
2013-04-09 09:32:00,50.0,40.0,30.09,WNW,290,3.0,5.0,68,0.00,,,0.00,,2013-04-09 16:32:00,
2013-04-09 09:42:00,50.0,40.0,30.09,WNW,290,3.0,5.0,68,0.00,,,0.00,,2013-04-09 16:42:00,
2013-04-09 09:52:00,51.0,40.0,30.09,NW,323,3.0,7.0,66,0.00,,,0.00,,2013-04-09 16:52:00,
2013-04-09 10:02:00,52.0,39.0,30.08,NW,315,3.0,9.0,62,0.00,,,0.00,,2013-04-09 17:02:00,
2013-04-09 10:12:00,52.0,39.0,30.08,NW,315,3.0,9.0,62,0.00,,,0.00,,2013-04-09 17:12:00,
2013-04-09 10:22:00,54.0,41.0,30.08,NW,323,2.0,6.0,61,0.00,,,0.00,,2013-04-09 17:22:00,
2013-04-09 10:32:00,56.0,41.0,30.08,SW,217,2.0,6.0,57,0.00,,,0.00,,2013-04-09 17:32:00,
2013-04-09 10:42:00,56.0,41.0,30.08,SW,217,2.0,6.0,57,0.00,,,0.00,,2013-04-09 17:42:00,
2013-04-09 10:53:00,57.0,40.0,30.09,NW,325,3.0,8.0,52,0.00,,,0.00,,2013-04-09 17:53:00,
2013-04-09 11:02:00,58.0,42.0,30.08,WSW,250,3.0,10.0,55,0.00,,,0.00,,2013-04-09 18:02:00,
2013-04-09 11:12:00,58.0,42.0,30.08,WSW,250,3.0,10.0,55,0.00,,,0.00,,2013-04-09 18:12:00,
2013-04-09 11:22:00,60.0,42.0,30.08,WNW,302,2.0,8.0,51,0.00,,,0.00,,2013-04-09 18:22:00,
2013-04-09 11:32:00,61.0,41.0,30.08,WSW,238,2.0,5.0,47,0.00,,,0.00,,2013-04-09 18:32:00,
2013-04-09 11:42:00,61.0,41.0,30.08,WSW,238,2.0,5.0,47,0.00,,,0.00,,2013-04-09 18:42:00,
2013-04-09 11:52:00,63.0,40.0,30.07,NW,307,3.0,8.0,43,0.00,,,0.00,,2013-04-09 18:52:00,
2013-04-09 12:02:00,63.0,40.0,30.07,NW,307,3.0,8.0,43,0.00,,,0.00,,2013-04-09 19:02:00,
2013-04-09 12:11:00,63.0,40.0,30.07,NW,307,3.0,8.0,43,0.00,,,0.00,,2013-04-09 19:11:00,
2013-04-09 12:32:00,66.0,38.0,30.08,South,186,2.0,7.0,36,0.00,,,0.00,,2013-04-09 19:32:00,
2013-04-09 12:41:00,66.0,38.0,30.08,South,186,2.0,7.0,36,0.00,,,0.00,,2013-04-09 19:41:00,
2013-04-09 12:51:00,68.0,30.0,30.08,NNW,336,3.0,9.0,24,0.00,,,0.00,,2013-04-09 19:51:00,
2013-04-09 13:02:00,68.0,31.0,30.07,SSW,209,3.0,14.0,25,0.00,,,0.00,,2013-04-09 20:02:00,
2013-04-09 13:12:00,70.0,33.0,30.07,North,355,3.0,9.0,25,0.00,,,0.00,,2013-04-09 20:12:00,
2013-04-09 13:22:00,70.0,33.0,30.07,North,355,3.0,9.0,25,0.00,,,0.00,,2013-04-09 20:22:00,
2013-04-09 13:32:00,70.0,27.0,30.06,WNW,298,3.0,9.0,20,0.00,,,0.00,,2013-04-09 20:32:00,
2013-04-09 13:42:00,70.0,27.0,30.06,WNW,298,3.0,9.0,20,0.00,,,0.00,,2013-04-09 20:42:00,
2013-04-09 13:52:00,70.0,25.0,30.06,WSW,251,4.0,12.0,18,0.00,,,0.00,,2013-04-09 20:52:00,
2013-04-09 14:02:00,70.0,25.0,30.06,WSW,251,4.0,12.0,18,0.00,,,0.00,,2013-04-09 21:02:00,
2013-04-09 14:12:00,70.0,25.0,30.06,WSW,251,4.0,12.0,18,0.00,,,0.00,,2013-04-09 21:12:00,
2013-04-09 14:33:00,72.0,23.0,30.05,SW,221,3.0,8.0,16,0.00,,,0.00,,2013-04-09 21:33:00,
2013-04-09 14:42:00,72.0,23.0,30.05,SW,221,3.0,8.0,16,0.00,,,0.00,,2013-04-09 21:42:00,
2013-04-09 14:52:00,72.0,23.0,30.05,North,360,3.0,11.0,16,0.00,,,0.00,,2013-04-09 21:52:00,
2013-04-09 15:02:00,72.0,20.0,30.05,NE,43,4.0,9.0,14,0.00,,,0.00,,2013-04-09 22:02:00,
2013-04-09 15:12:00,74.0,23.0,30.05,SSW,202,3.0,13.0,15,0.00,,,0.00,,2013-04-09 22:12:00,
2013-04-09 15:22:00,74.0,23.0,30.05,SSW,202,3.0,13.0,15,0.00,,,0.00,,2013-04-09 22:22:00,
2013-04-09 15:32:00,74.0,23.0,30.04,North,5,3.0,6.0,15,0.00,,,0.00,,2013-04-09 22:32:00,
2013-04-09 15:42:00,74.0,23.0,30.04,North,5,3.0,6.0,15,0.00,,,0.00,,2013-04-09 22:42:00,
2013-04-09 15:52:00,74.0,23.0,30.04,West,274,3.0,14.0,15,0.00,,,0.00,,2013-04-09 22:52:00,
2013-04-09 16:02:00,74.0,23.0,30.04,West,274,3.0,14.0,15,0.00,,,0.00,,2013-04-09 23:02:00,
2013-04-09 16:12:00,74.0,22.0,30.03,NNE,23,4.0,11.0,14,0.00,,,0.00,,2013-04-09 23:12:00,
2013-04-09 16:22:00,74.0,22.0,30.03,NNE,23,4.0,11.0,14,0.00,,,0.00,,2013-04-09 23:22:00,
2013-04-09 16:32:00,74.0,20.0,30.03,NE,51,5.0,11.0,13,0.00,,,0.00,,2013-04-09 23:32:00,
2013-04-09 16:42:00,74.0,20.0,30.03,NE,51,5.0,11.0,13,0.00,,,0.00,,2013-04-09 23:42:00,
2013-04-09 16:52:00,75.0,21.0,30.03,NE,38,4.0,9.0,13,0.00,,,0.00,,2013-04-09 23:52:00,
2013-04-09 17:02:00,75.0,21.0,30.03,NE,38,4.0,9.0,13,0.00,,,0.00,,2013-04-10 00:02:00,
2013-04-09 17:12:00,75.0,21.0,30.03,NE,38,4.0,9.0,13,0.00,,,0.00,,2013-04-10 00:12:00,
2013-04-09 17:22:00,75.0,24.0,30.03,NW,321,3.0,9.0,15,0.00,,,0.00,,2013-04-10 00:22:00,
2013-04-09 17:32:00,75.0,21.0,30.03,NNW,335,4.0,8.0,13,0.00,,,0.00,,2013-04-10 00:32:00,
2013-04-09 17:42:00,75.0,21.0,30.03,NNW,335,4.0,8.0,13,0.00,,,0.00,,2013-04-10 00:42:00,
2013-04-09 17:51:00,75.0,21.0,30.03,NNW,335,4.0,8.0,13,0.00,,,0.00,,2013-04-10 00:51:00,
2013-04-09 18:01:00,76.0,23.0,30.03,North,5,2.0,9.0,14,0.00,,,0.00,,2013-04-10 01:01:00,
2013-04-09 18:12:00,76.0,23.0,30.03,North,5,2.0,9.0,14,0.00,,,0.00,,2013-04-10 01:12:00,
2013-04-09 18:22:00,76.0,23.0,30.03,North,5,2.0,9.0,14,0.00,,,0.00,,2013-04-10 01:22:00,
2013-04-09 18:32:00,75.0,24.0,30.03,SSE,161,3.0,8.0,15,0.00,,,0.00,,2013-04-10 01:32:00,
2013-04-09 18:43:00,75.0,24.0,30.03,SSE,161,3.0,8.0,15,0.00,,,0.00,,2013-04-10 01:43:00,
2013-04-09 18:52:00,74.0,26.0,30.04,North,360,4.0,8.0,17,0.00,,,0.00,,2013-04-10 01:52:00,
2013-04-09 19:01:00,73.0,37.0,30.04,NNW,344,2.0,8.0,27,0.00,,,0.00,,2013-04-10 02:01:00,
2013-04-09 19:12:00,73.0,37.0,30.04,NNW,344,2.0,8.0,27,0.00,,,0.00,,2013-04-10 02:12:00,
2013-04-09 19:21:00,72.0,43.0,30.04,NNW,342,1.0,5.0,35,0.00,,,0.00,,2013-04-10 02:21:00,
2013-04-09 19:32:00,70.0,43.0,30.04,West,281,1.0,3.0,37,0.00,,,0.00,,2013-04-10 02:32:00,
2013-04-09 19:42:00,70.0,43.0,30.04,West,281,1.0,3.0,37,0.00,,,0.00,,2013-04-10 02:42:00,
2013-04-09 19:51:00,68.0,43.0,30.04,WSW,253,1.0,5.0,40,0.00,,,0.00,,2013-04-10 02:51:00,
2013-04-09 19:52:00,66.0,44.0,30.06,NNW,342,1.0,3.0,45,0.00,,,0.00,,2013-04-10 02:52:00,
2013-04-09 20:02:00,67.0,44.0,30.05,WNW,299,1.0,3.0,43,0.00,,,0.00,,2013-04-10 03:02:00,
2013-04-09 20:12:00,67.0,44.0,30.05,WNW,299,1.0,3.0,43,0.00,,,0.00,,2013-04-10 03:12:00,
2013-04-09 20:22:00,66.0,44.0,30.06,NNW,342,1.0,3.0,45,0.00,,,0.00,,2013-04-10 03:22:00,
2013-04-09 20:32:00,66.0,44.0,30.06,NNW,342,1.0,3.0,45,0.00,,,0.00,,2013-04-10 03:32:00,
2013-04-09 20:43:00,66.0,44.0,30.06,NNW,342,1.0,3.0,45,0.00,,,0.00,,2013-04-10 03:43:00,